Regional Weather Roundup
Issued by NWS Cleveland, OH

Home | Current Version | Previous Version | Graphics & Text | Print | Product List | Glossary On
Versions: 1 2 3 4 5 6 7 8 9 10 11 12 13 14 15 16 17 18 19 20 21 22 23 24 25 26 27 28 29 30 31 32 33 34 35 36 37 38 39 40 41 42 43 44 45 46 47 48 49 50
000
ASUS41 KCLE 200502
RWRCLE
OHIO REGIONAL WEATHER ROUNDUP
NATIONAL WEATHER SERVICE CLEVELAND, OH
1200 AM EST MON FEB 20 2017

NOTE: "FAIR" INDICATES FEW OR NO CLOUDS BELOW 12,000 FEET WITH NO
SIGNIFICANT WEATHER AND/OR OBSTRUCTIONS TO VISIBILITY.

OHZ001>008-015>018-024>027-034-035-043-044-200600-
   NORTHWEST OHIO

CITY           SKY/WX    TMP DP  RH WIND       PRES   REMARKS
DEFIANCE       PTCLDY    37  31  78 CALM      30.16R
FINDLAY        CLOUDY    43  32  65 CALM      30.14R
TOLEDO EXPRESS CLOUDY    39  32  76 E3        30.16R
TOLEDO EXEC    CLEAR     45  35  68 E6        30.17R
LIMA           PTCLDY    44  40  85 S6        30.16R
$$

OHZ009>014-019>023-028>033-038-089-200600-
   NORTHEAST OHIO

CITY           SKY/WX    TMP DP  RH WIND       PRES   REMARKS
CLE-HOPKINS    PTCLDY    43  32  65 CALM      30.18R
CLE-LAKEFRONT  CLEAR     38  34  85 E5        30.15R
CUY CO. ARPT   NOT AVBL
LORAIN-ELYRIA  CLEAR     41  32  70 CALM      30.15R
ASHTABULA      CLEAR     35  32  88 E3        30.16S
AKRON-CANTON   CLEAR     42  33  70 SW5       30.15R
WOOSTER        CLEAR     43  39  86 CALM      30.15R
MANSFIELD      CLEAR     41  36  82 S7        30.14S
YOUNGSTOWN     PTCLDY    43  32  65 NE5       30.15S
$$

OHZ042-051>053-060>062-070>072-077>081-200600-
  SOUTHWEST OHIO

CITY           SKY/WX    TMP DP  RH WIND       PRES   REMARKS
CINC-COVINGTON PTCLDY    42  42 100 S5        30.16S FOG
CINC-LUNKEN    FOG       38  38 100 CALM      30.19R VSB 1/4
HAMILTON       FOG       34  34 100 CALM      30.19R VSB 1/4
DAYTON         CLEAR     43  41  93 SW5       30.17R FOG
WRIGHT-PAT AFB CLEAR     38  38 100 CALM      30.17R FOG
DAYTON GENERAL CLEAR     44  43  96 S3        30.16R FOG
WILMINGTON     FOG       39  39 100 S3        30.16S VSB 1/4
$$

OHZ036-037-039>041-045>050-054>059-063>069-073>076-082>088-200600-
  CENTRAL AND SOUTHEAST OHIO

CITY           SKY/WX    TMP DP  RH WIND       PRES   REMARKS
COLUMBUS       PTCLDY    43  40  89 SE5       30.17R FOG
OSU AIRPORT    CLOUDY    42  42 100 S3        30.16R FOG
BOLTON FIELD   NOT AVBL
RICKENBACK AFB FOG       39  39 100 CALM      30.17R VSB 1/4
NEWARK         FOG       34  33  96 CALM      30.16R VSB 1/4
MARION         CLOUDY    40  38  93 S5        30.16R FOG
LANCASTER      FOG       36  34  92 CALM      30.18R VSB 1/2
ZANESVILLE     FOG       39  38  96 CALM      30.18R VSB 1/4
NEW PHILLY     NOT AVBL
$$




USA.gov is the U.S. government's official web portal to all federal, state and local government web resources and services.